This demonstration page uses our WeatherBlox Daily Observations layout. Learn more.

39.92423, -83.80882

Hourly Observations for August 8, 2018

Temp ( °F °C ) Dew Point ( °F °C ) Humidity (%) Winds ( mph kmh ) Pressure ( in mb ) Visibility ( mi km ) Precip ( " mm )
12:56 am 00:56 Mostly Clear with Light Rain 70 21.1 70 21.1 100 100 Calm 29.98 1015 5 8.0467 0.2 5.08
1:04 am 01:04 Mostly Clear with Nearby Thunderstorms 70 21 70 21 100 100 Calm 29.97 1015 10 16.0934 0 0.0254
1:26 am 01:26 Clear 70 21 70 21 100 100 Calm 29.97 1015 10 16.0934 0 0.0254
1:56 am 01:56 Clear 69 20.6 69 20.6 100 100 SSE 5 7 29.97 1015 9 14.48406 0.01 0.254
2:56 am 02:56 Clear 68 20 68 20 100 100 S 3 6 29.95 1014 10 16.0934 0 0
3:56 am 03:56 Mostly Clear with Light Rain 69 20.6 69 20.6 100 100 S 3 6 29.95 1014 1.25 2.011675 0 0.0254
4:00 am 04:00 Mostly Clear with Light Rain 70 21 70 21 100 100 SSW 3 6 29.94 1014 0.75 1.207005 0 0.0254
4:11 am 04:11 Mostly Clear with Fog 70 21 70 21 100 100 SSW 3 6 29.94 1014 0.5 0.80467 0 0.0254
4:46 am 04:46 Mostly Clear with Fog 72 22 72 22 100 100 SSW 5 7 29.94 1014 0.25 0.402335 0 0.0254
4:54 am 04:54 Mostly Clear with Fog 72 22 72 22 100 100 SSW 3 6 29.94 1014 0.5 0.80467 0 0.0254
4:56 am 04:56 Mostly Clear with Fog 71 21.7 71 21.7 100 100 SSW 5 7 29.94 1014 0.5 0.80467 0 0.0254
5:25 am 05:25 Mostly Clear with Mist and Fog 72 22 72 22 100 100 SSW 5 7 29.94 1014 0.75 1.207005 0 0
5:38 am 05:38 Mostly Clear with Mist and Fog 72 22 72 22 100 100 SSW 3 6 29.94 1014 1.25 2.011675 0 0
5:56 am 05:56 Mostly Clear with Mist and Fog 71 21.7 71 21.7 100 100 S 3 6 29.95 1014 1.5 2.41401 0 0
6:09 am 06:09 Mostly Clear with Mist and Fog 72 22 72 22 100 100 SSW 5 7 29.94 1014 2 3.21868 0 0
6:19 am 06:19 Mostly Clear with Mist and Fog 72 22 72 22 100 100 SSW 3 6 29.94 1014 1.5 2.41401 0 0
6:56 am 06:56 Partly Cloudy with Light Rain 71 21.7 71 21.7 100 100 SSW 3 6 29.96 1015 1.75 2.816345 0 0.0254
7:11 am 07:11 Partly Cloudy with Light Rain 72 22 72 22 100 100 SSW 5 7 29.94 1014 2 3.21868 0 0.0254
7:37 am 07:37 Partly Cloudy with Mist and Fog 72 22 72 22 100 100 SSW 5 7 29.94 1014 1.75 2.816345 0 0.0254
7:48 am 07:48 Partly Cloudy with Mist and Fog 72 22 72 22 100 100 SSW 5 7 29.94 1014 2 3.21868 0 0.0254
7:56 am 07:56 Partly Cloudy with Mist and Fog 71 21.7 71 21.7 100 100 SSW 6 9 29.96 1015 2 3.21868 0 0.0254
8:35 am 08:35 Partly Cloudy with Light Rain 72 22 72 22 100 100 S 6 9 29.94 1014 1.75 2.816345 0 0.0254
8:42 am 08:42 Partly Cloudy with Light Rain 72 22 72 22 100 100 SSW 5 7 29.94 1014 2.5 4.02335 0 0.0254
8:56 am 08:56 Partly Cloudy with Light Rain 71 21.7 71 21.7 100 100 SSW 5 7 29.97 1015 2.5 4.02335 0.06 1.524
9:03 am 09:03 Partly Cloudy with Light Rain 72 22 72 22 100 100 SW 7 11 29.94 1014 4 6.43736 0.01 0.254
9:28 am 09:28 Partly Cloudy with Nearby Thunderstorms 72 22 72 22 100 100 SSW 3 6 29.97 1015 5 8.0467 0.13 3.302
9:56 am 09:56 Partly Cloudy with Heavy Thunderstorms 70 21.1 70 21.1 100 100 SW 5 7 29.98 1015 10 16.0934 0.27 6.858
10:10 am 10:10 Partly Cloudy with Rain 72 22 72 22 100 100 Calm 29.97 1015 10 16.0934 0.03 0.762
10:56 am 10:56 Sunny 71 21.7 71 21.7 100 100 SSW 5 7 29.98 1015 10 16.0934 0.03 0.762
11:56 am 11:56 Sunny 73 22.8 71 21.7 94 94 WSW 9 15 29.98 1015 10 16.0934 0 0
12:56 pm 12:56 Sunny 75 23.9 73 22.8 94 94 W 7 11 29.96 1015 10 16.0934 0 0
1:56 pm 13:56 Sunny 77 25 72 22.2 85 85 WSW 9 15 29.96 1014 10 16.0934 0 0
2:56 pm 14:56 Sunny 80 26.7 73 22.8 79 79 W 8 13 29.93 1014 10 16.0934 0 0
3:56 pm 15:56 Sunny 81 27.2 73 22.8 77 77 WSW 8 13 29.91 1013 10 16.0934 0 0
4:56 pm 16:56 Sunny 82 27.8 73 22.8 74 74 SW 7 11 29.91 1013 10 16.0934 0 0
5:56 pm 17:56 Sunny 81 27.2 71 21.7 72 72 WSW 7 11 29.9 1012 10 16.0934 0 0
6:56 pm 18:56 Sunny 81 27.2 72 22.2 74 74 WNW 7 11 29.9 1013 10 16.0934 0 0
7:16 pm 19:16 Partly Cloudy with Nearby Thunderstorms 79 26 70 21 74 74 WNW 10 17 29.88 1012 10 16.0934 0 0
7:34 pm 19:34 Partly Cloudy with Light Rain 72 22 70 21 94 94 N 15 24 29.91 1013 10 16.0934 0 0.0254
7:56 pm 19:56 Sunny 71 21.7 69 20.6 94 94 WNW 6 9 29.92 1013 10 16.0934 0 0.0254
8:56 pm 20:56 Clear 71 21.7 68 20 90 90 WNW 9 15 29.91 1013 10 16.0934 0 0
9:56 pm 21:56 Clear 68 20 68 20 100 100 WSW 7 11 29.93 1014 10 16.0934 0 0
10:56 pm 22:56 Clear 67 19.4 67 19.4 100 100 WSW 5 7 29.94 1014 10 16.0934 0 0
11:56 pm 23:56 Clear 67 19.4 67 19.4 100 100 WSW 7 11 29.94 1014 10 16.0934 0 0

Powered by AerisWeather